ONEWEB-0017, 45132

Orbit data source: Space-Track

ONEWEB-0017, 45132 is a payload satellite owned by One Web (UK) in LEO that was launched on Thu, 06 Feb 2020 UTC via a SOYUZ-2-1B launch vehicle from the Tyuratam Missile And Space Complex (TTMTR). Payload-class satellites include a variety of spacecraft equipped with specific instruments for various scientific and technological missions. These include communications satellites like Starlink; space stations such as the ISS; scientific satellites like the Hubble; Earth observation satellites from companies like Planet Labs, Umbra, and HawkEye 360; GPS; miniature CubeSats for education and research; and military/defense satellites.

Loading next visibility...
Identifier
45132, 2020-008B
Orbit
LEO
Country
Flag of UKUK
Related business
Manufacturer
One Web
Mission
Operational Commercial Communications
Bus & Motor
ARROW, Unknown motor
Mass
148 kg wet, ~140 kg dry
Launch date (UTC)
2020-02-06 (6 years ago)
Launch vehicle
SOYUZ-2-1B
Launch site
Tyuratam Missile And Space Complex (TTMTR)
Object type
Payload
Rocket body
Debris
Shape & HBR
Trap Box + 2 Pan, 2.5 m
Radar Cross Section
2.957 m², Large (>1 m²)

Expand to show TLE details & history
Last TLE update: 6 hours ago

TLE from 6 hours ago
0 ONEWEB-0017
1 45132U 20008B   25260.93792829 -.00000620  00000-0 -18132-2 0  9996
2 45132  87.8736  90.5665 0001497  93.7690 266.3608 13.10371001272292
Epoch: 2025-09-17T22:30Z
TLE epoch observation values (Epoch: 2025-09-17T22:30:37.004Z)
Latitude
-0.00006°
Longitude
115.80561°
Altitude
1,224.684 km
Speed
7.242 km/s
True Right ascension
06h 02m 15s
True Declination
0° 00' 00"
Sunlit
Object was in daylight at epoch
Visualization orbit readout
Latitude
Unknown
Longitude
Unknown
Altitude
Unknown
Speed
Unknown
Apparent Right ascension
Unknown
Apparent Declination
Unknown
Sunlit
N/A
Visualization observer readout
Local Sidereal Time
21:12:14
Azimuth
Unknown
Elevation
Unknown
Doppler factor
Unknown
Orbital elements
Apogee altitude
1,219.981 km
Perigee altitude
1,217.707 km
Semi-major axis
7,596.981 km
Eccentricity
0.00015
Inclination
87.8736°
RAAN
90.5665°
Arg. of periapsis
93.769°
True anomaly
266.34368°
Mean anomaly
266.3608°
Eccentric anomaly
266.35224°
Mean motion
3.27779 °/min
Orbital period
109.83 mins
BSTAR
-0.0018132
Loading maneuver chart data...
Computing Atmospheric mass density...
Loading historical data...
Loading historical data...
Loading historical data...
Loading historical data...
Loading historical data...
Loading historical data...
Loading historical data...

Documentation

Showing up to 5 results
|